Date String (YYYY-MM-DD hh:mm:ss) UTC,Instrument flags,Ambient pressure (hPa),Sample flow (lpm),Bypass flow (lpm),Sample temperature (°C),Ambient temperature (°C),ASC tube jacket temperature (°C),LED temperature (°C),Box temperature (°C),Sample RH (%),Span deviation,Mass concentration (μg/m³),Mass concentration (μg/m³),Mass concentration (μg/m³)
DateTimeUTC,F1_M11,P_M11,Q1_M11,Q2_M11,T1_M11,T2_M11,T3_M11,T4_M11,T5_M11,U1_M11,ZSPAN_M11,X0_M11,X2_M11,X1_M11
2022-01-05 19:00:00,,0814.9,5.00,0.00,23.0,22.3,00.0,32.0,24.8,10.2,0000.0,0007.42,0004.01,0003.73
2022-01-05 19:01:00,,0814.9,5.01,0.00,23.0,22.3,00.0,32.0,24.8,10.3,0000.0,0008.13,0004.03,0003.73
2022-01-05 19:02:00,,0815.1,4.99,0.00,23.0,22.3,00.0,32.0,24.8,10.3,0000.0,0008.46,0004.01,0003.74
2022-01-05 19:03:00,,0814.9,5.01,0.00,23.0,22.3,00.0,32.0,24.8,10.4,0000.0,0008.42,0004.01,0003.75
2022-01-05 19:04:00,,0814.9,5.01,0.00,23.0,22.3,00.0,32.0,24.8,10.4,0000.0,0008.48,0004.03,0003.76
2022-01-05 19:05:00,,0814.9,4.99,0.00,23.0,22.3,00.0,32.0,24.8,10.5,0000.0,0008.54,0004.04,0003.76
2022-01-05 19:06:00,,0814.9,4.99,0.00,23.0,22.3,00.0,32.0,24.8,10.5,0000.0,0008.58,0004.03,0003.77
2022-01-05 19:07:00,,0814.9,5.01,0.00,23.0,22.3,00.0,32.0,24.8,10.4,0000.0,0008.11,0004.03,0003.78
2022-01-05 19:08:00,,0815.0,4.99,0.00,23.0,22.3,00.0,32.0,24.8,10.5,0000.0,0008.05,0004.05,0003.78
2022-01-05 19:09:00,,0814.9,5.00,0.00,23.0,22.3,00.0,32.0,24.8,10.6,0000.0,0007.92,0004.04,0003.77
2022-01-05 19:10:00,,0814.9,5.01,0.00,23.0,22.3,00.0,32.0,24.8,10.6,0000.0,0007.94,0004.05,0003.76
2022-01-05 19:11:00,,0814.9,4.99,0.00,23.1,22.3,00.0,32.0,24.8,10.6,0000.0,0007.95,0004.04,0003.75
2022-01-05 19:12:00,,0815.0,5.00,0.00,23.0,22.3,00.0,32.0,24.8,10.5,0000.0,0007.30,0004.04,0003.75
2022-01-05 19:13:00,,0815.1,5.01,0.00,23.0,22.3,00.0,32.0,24.8,10.4,0000.0,0006.64,0004.05,0003.75
2022-01-05 19:14:00,,0815.0,5.00,0.00,23.0,22.3,00.0,32.0,24.8,10.5,0000.0,0006.66,0004.05,0003.74
2022-01-05 19:15:00,,0815.0,5.00,0.00,23.1,22.3,00.0,32.0,24.8,10.5,0000.0,0006.59,0004.03,0003.72
2022-01-05 19:16:00,,0815.0,4.99,0.00,23.1,22.3,00.0,32.0,24.8,10.4,0000.0,0006.72,0004.04,0003.71
2022-01-05 19:17:00,,0815.1,5.00,0.00,23.1,22.3,00.0,32.0,24.8,10.4,0000.0,0007.08,0004.06,0003.71
2022-01-05 19:18:00,,0814.9,5.01,0.00,23.1,22.3,00.0,32.0,24.9,10.3,0000.0,0007.32,0004.08,0003.70
2022-01-05 19:19:00,,0814.8,5.02,0.00,23.1,22.3,00.0,32.0,24.9,10.3,0000.0,0007.20,0004.04,0003.69
2022-01-05 19:20:00,,0814.9,5.00,0.00,23.1,22.4,00.0,32.0,24.9,10.4,0000.0,0007.15,0004.03,0003.69
2022-01-05 19:21:00,,0814.9,5.00,0.00,23.1,22.4,00.0,32.0,24.9,10.4,0000.0,0007.13,0004.04,0003.69
2022-01-05 19:22:00,,0814.8,5.00,0.00,23.1,22.4,00.0,32.0,24.9,10.5,0000.0,0006.94,0004.02,0003.69
2022-01-05 19:23:00,,0815.1,5.00,0.00,23.1,22.4,00.0,32.0,24.9,10.5,0000.0,0007.00,0004.02,0003.70
2022-01-05 19:24:00,,0815.0,4.99,0.00,23.1,22.4,00.0,32.0,24.9,10.5,0000.0,0006.94,0004.01,0003.70
2022-01-05 19:25:00,,0815.1,5.02,0.00,23.1,22.4,00.0,32.0,24.9,10.5,0000.0,0007.18,0004.03,0003.71
2022-01-05 19:26:00,,0814.6,4.99,0.00,23.1,22.4,00.0,32.0,24.9,10.5,0000.0,0008.15,0004.06,0003.72
2022-01-05 19:27:00,,0814.7,5.00,0.00,23.1,22.4,00.0,32.0,24.9,10.7,0000.0,0008.34,0004.06,0003.73
2022-01-05 19:28:00,,0815.0,5.01,0.00,23.1,22.4,00.0,32.0,24.9,10.5,-000.0,0008.12,0004.06,0003.74
2022-01-05 19:29:00,,0815.1,5.00,0.00,23.1,22.4,00.0,32.0,24.9,10.6,0000.0,0007.96,0004.06,0003.75
2022-01-05 19:30:00,,0814.7,5.00,0.00,23.1,22.4,00.0,32.0,24.9,10.5,0000.0,0007.96,0004.07,0003.76
2022-01-05 19:31:00,,0814.7,5.00,0.00,23.1,22.4,00.0,32.0,24.9,10.5,0000.0,0008.03,0004.08,0003.78
2022-01-05 19:32:00,,0815.0,5.01,0.00,23.1,22.4,00.0,32.0,24.9,10.6,0000.0,0008.33,0004.09,0003.79
2022-01-05 19:33:00,,0814.8,4.99,0.00,23.1,22.4,00.0,32.0,24.9,10.6,0000.0,0008.93,0004.13,0003.82
2022-01-05 19:34:00,,0814.4,5.00,0.00,23.1,22.4,00.0,32.0,24.9,10.5,0000.0,0009.28,0004.15,0003.83
2022-01-05 19:35:00,,0814.4,4.98,0.00,23.2,22.4,00.0,32.0,24.9,10.6,0000.0,0009.38,0004.18,0003.84
2022-01-05 19:36:00,,0814.4,5.00,0.00,23.2,22.4,00.0,32.0,24.9,10.8,0000.0,0009.37,0004.21,0003.86
2022-01-05 19:37:00,,0814.5,5.01,0.00,23.1,22.4,00.0,32.0,24.9,10.7,0000.0,0008.59,0004.22,0003.87
2022-01-05 19:38:00,,0814.6,5.01,0.00,23.1,22.4,00.0,32.0,24.9,10.7,0000.0,0008.37,0004.27,0003.90
2022-01-05 19:39:00,,0814.7,4.99,0.00,23.1,22.3,00.0,32.0,24.9,10.8,0000.0,0008.46,0004.31,0003.91
2022-01-05 19:40:00,,0814.5,5.00,0.00,23.1,22.3,00.0,32.0,24.9,10.8,0000.0,0009.15,0004.32,0003.94
2022-01-05 19:41:00,,0814.5,5.00,0.00,23.1,22.3,00.0,32.0,24.8,10.8,0000.0,0009.20,0004.35,0003.96
2022-01-05 19:42:00,,0814.5,5.01,0.00,23.1,22.3,00.0,32.0,24.8,10.7,0000.0,0009.14,0004.35,0003.97
2022-01-05 19:43:00,,0814.8,4.99,0.00,23.1,22.3,00.0,32.0,24.7,10.7,0000.0,0009.13,0004.37,0003.99
2022-01-05 19:44:00,,0814.5,4.99,0.00,23.0,22.3,00.0,32.0,24.7,10.7,0000.0,0008.83,0004.36,0004.00
2022-01-05 19:45:00,,0814.6,5.00,0.00,23.1,22.7,00.0,32.0,24.9,10.8,0000.0,0008.29,0004.38,0004.02
2022-01-05 19:46:00,,0814.5,5.00,0.00,23.2,23.5,00.0,32.1,25.1,10.8,0000.0,0008.24,0004.39,0004.04
2022-01-05 19:47:00,,0814.4,5.00,0.00,23.3,23.7,00.0,32.1,25.2,10.9,0000.0,0008.16,0004.38,0004.06
2022-01-05 19:48:00,,0814.3,4.99,0.00,23.3,23.6,00.0,32.1,25.2,10.9,0000.0,0008.14,0004.38,0004.08
2022-01-05 19:49:00,,0814.3,5.00,0.00,23.3,23.4,00.0,32.2,25.1,10.7,0000.0,0008.09,0004.37,0004.09
2022-01-05 19:50:00,,0814.3,5.00,0.00,23.3,23.2,00.0,32.2,25.1,10.8,0000.0,0008.04,0004.38,0004.12
2022-01-05 19:51:00,,0814.4,4.99,0.00,23.3,23.1,00.0,32.2,25.0,10.9,0000.0,0007.50,0004.40,0004.13
2022-01-05 19:52:00,,0814.4,5.00,0.00,23.3,22.9,00.0,32.2,25.0,10.8,0000.0,0007.56,0004.42,0004.13
2022-01-05 19:53:00,,0814.4,5.00,0.00,23.2,22.8,00.0,32.2,24.9,11.0,0000.0,0007.66,0004.45,0004.16
2022-01-05 19:54:00,,0814.4,5.00,0.00,23.2,22.7,00.0,32.2,24.9,11.0,0000.0,0007.57,0004.46,0004.18
2022-01-05 19:55:00,,0814.3,5.01,0.00,23.2,22.6,00.0,32.2,24.9,11.0,0000.0,0007.53,0004.48,0004.20
2022-01-05 19:56:00,,0814.4,5.00,0.00,23.2,22.6,00.0,32.2,24.8,10.9,0000.0,0007.54,0004.48,0004.21
2022-01-05 19:57:00,,0814.4,5.01,0.00,23.1,22.5,00.0,32.2,24.8,10.9,0000.0,0007.56,0004.48,0004.22
2022-01-05 19:58:00,,0814.4,4.99,0.00,23.1,22.4,00.0,32.1,24.7,11.0,0000.0,0007.56,0004.49,0004.22
2022-01-05 19:59:00,,0814.4,5.01,0.00,23.1,22.4,00.0,32.1,24.7,11.1,0000.0,0007.68,0004.53,0004.23
